Change the Weather History Date:

Tuesday, January 24, 2012

  Actual Average Record
Temperature  
Mean Temperature 36 °F -  
Max Temperature 53 °F 42 °F 72 °F (1981)
Min Temperature 19 °F 20 °F -7 °F (1963)
Degree Days  
Heating Degree Days 29    
Moisture  
Dew Point 23 °F    
Average Humidity 60    
Maximum Humidity 85    
Minimum Humidity 32    
Precipitation  
Precipitation 0.00 in - - ()
Sea Level Pressure  
Sea Level Pressure 30.16 in    
Wind  
Wind Speed 4 mph (ESE)    
Max Wind Speed 14 mph    
Max Gust Speed -    
Visibility 10 miles    
Events      
Averages and records for this station are not official NWS values.
T = Trace of Precipitation, MM = Missing Value Source: NWS Daily Summary

Daily Weather History Graph

Daily Weather History Graph

Search for Another Location

Airport or City:

Trip Planner

Search our weather history database for the weather conditions in past years. The results will help you decide how hot, cold, wet, or windy it might be!

Date:

Astronomy

Jan. 24, 2012 Rise Set
Actual Time 7:35 AM CST 5:34 PM CST
Civil Twilight 7:06 AM CST 6:02 PM CST
Nautical Twilight 6:34 AM CST 6:35 PM CST
Astronomical Twilight 6:02 AM CST 7:06 PM CST
Moon 8:06 AM CST (1/24) 7:25 PM CST (1/24)
Length of Visible Light 10h 56m
Length of Day
9h 58m
New Moon, 2% of the Moon is Illuminated
Jan 24
New Moon
Jan 30
First Quarter
Feb 7
Full
Feb 14
Last Quarter
Feb 21
New

Hourly Weather History & Observations

Time (CST) Temp. Windchill Dew Point Humidity Pressure Visibility Wind Dir Wind Speed Gust Speed Precip Events Conditions
12:53 AM 21.9 °F - 15.1 °F 75% 30.08 in 10.0 mi Calm Calm - N/A   Clear
1:53 AM 21.0 °F - 16.0 °F 81% 30.10 in 10.0 mi Calm Calm - N/A   Clear
2:53 AM 21.9 °F - 15.1 °F 75% 30.12 in 10.0 mi Calm Calm - N/A   Clear
3:53 AM 21.0 °F - 15.1 °F 78% 30.11 in 10.0 mi Calm Calm - N/A   Clear
6:53 AM 19.9 °F - 16.0 °F 85% 30.15 in 10.0 mi Calm Calm - N/A   Clear
8:53 AM 27.0 °F 21.6 °F 21.9 °F 81% 30.20 in 10.0 mi East 4.6 mph - N/A   Clear
9:53 AM 32.0 °F 24.8 °F 25.0 °F 75% 30.22 in 10.0 mi ESE 8.1 mph - N/A   Clear
10:53 AM 36.0 °F 30.3 °F 25.0 °F 64% 30.22 in 10.0 mi ESE 6.9 mph - N/A   Partly Cloudy
11:53 AM 39.0 °F 32.8 °F 26.1 °F 60% 30.21 in 10.0 mi ESE 9.2 mph - N/A   Partly Cloudy
12:53 PM 44.1 °F 39.0 °F 27.0 °F 51% 30.19 in 10.0 mi ESE 9.2 mph - N/A   Clear
3:53 PM 53.1 °F - 25.0 °F 34% 30.11 in 10.0 mi East 13.8 mph - N/A   Clear
4:53 PM 52.0 °F - 23.0 °F 32% 30.12 in 10.0 mi ESE 10.4 mph - N/A   Clear
5:53 PM 48.9 °F - 24.1 °F 38% 30.14 in 10.0 mi East 11.5 mph - N/A   Clear
6:53 PM 46.9 °F - 25.0 °F 42% 30.15 in 10.0 mi East 6.9 mph - N/A   Clear
7:53 PM 44.1 °F 38.6 °F 27.0 °F 51% 30.15 in 10.0 mi East 10.4 mph - N/A   Clear
8:53 PM 43.0 °F 37.2 °F 27.0 °F 53% 30.15 in 10.0 mi East 10.4 mph - N/A   Mostly Cloudy
9:53 PM 43.0 °F 39.5 °F 28.0 °F 56% 30.17 in 10.0 mi East 5.8 mph - N/A   Overcast
10:53 PM 43.0 °F - 28.0 °F 56% 30.19 in 10.0 mi Calm Calm - N/A   Overcast
11:53 PM 43.0 °F - 28.0 °F 56% 30.18 in 10.0 mi Calm Calm - N/A   Overcast